This is the latest recevied weather packets stored in our database for station/object EA7AVH-10. If no packets are shown the sender has not sent any weather packets the latest 10 day(s).
| Time | Temp. | Humidity | Pressure | Rain* | Wind** | Luminosity | Snow |
|---|---|---|---|---|---|---|---|
| 1778122056 | 11.67° C | 82% | 918.5 hPa | - | - | - | - |
| 1778121156 | 12.22° C | 82% | 918.5 hPa | - | - | - | - |
| 1778120255 | 12.78° C | 81% | 918.4 hPa | - | - | - | - |
| 1778119354 | 12.78° C | 81% | 918.5 hPa | - | - | - | - |
| 1778118453 | 13.33° C | 80% | 918.6 hPa | - | - | - | - |
| 1778117552 | 13.33° C | 80% | 918.6 hPa | - | - | - | - |
| 1778116652 | 13.33° C | 79% | 918.8 hPa | - | - | - | - |
| 1778115751 | 13.33° C | 79% | 919 hPa | - | - | - | - |
| 1778114850 | 13.33° C | 78% | 919.2 hPa | - | - | - | - |
| 1778113949 | 13.33° C | 79% | 919.1 hPa | - | - | - | - |
| 1778113048 | 13.33° C | 78% | 919.3 hPa | - | - | - | - |
| 1778112147 | 13.33° C | 78% | 919.3 hPa | - | - | - | - |
| 1778111247 | 13.33° C | 78% | 919.3 hPa | - | - | - | - |
| 1778110346 | 13.33° C | 78% | 919.3 hPa | - | - | - | - |
| 1778109444 | 14.44° C | 78% | 919.3 hPa | - | - | - | - |
| 1778108565 | 13.33° C | 78% | 919.5 hPa | - | - | - | - |
| 1778107664 | 13.33° C | 78% | 919.7 hPa | - | - | - | - |
| 1778106763 | 13.33° C | 77% | 919.7 hPa | - | - | - | - |
| 1778105862 | 13.33° C | 77% | 919.6 hPa | - | - | - | - |
| 1778104962 | 13.33° C | 77% | 919.7 hPa | - | - | - | - |
| 1778104061 | 13.33° C | 77% | 919.8 hPa | - | - | - | - |
| 1778103160 | 13.33° C | 77% | 919.7 hPa | - | - | - | - |
| 1778102259 | 13.33° C | 77% | 919.6 hPa | - | - | - | - |
| 1778101358 | 13.33° C | 76% | 919.5 hPa | - | - | - | - |
| 1778100457 | 13.89° C | 75% | 919.4 hPa | - | - | - | - |
* Rain since midnight (hover to see other rain measurements)
** Current wind speed in m/s (hover to see current wind gust speed)